Weather History for McGuire AFB, NJ

Change the Weather History Date:

Thursday, March 13, 2014

  Actual Average Record
Temperature  
Mean Temperature 26 °F -  
Max Temperature 31 °F 47 °F 78 °F (2006)
Min Temperature 19 °F 29 °F 19 °F (2014)
Degree Days  
Heating Degree Days 40    
Moisture  
Dew Point 6 °F    
Average Humidity 48    
Maximum Humidity 75    
Minimum Humidity 24    
Precipitation  
Precipitation 0.00 in - - ()
Sea Level Pressure  
Sea Level Pressure 29.56 in    
Wind  
Wind Speed 23 mph (NW)    
Max Wind Speed 31 mph    
Max Gust Speed 45 mph    
Visibility 10 miles    
Events Snow    
Averages and records for this station are not official NWS values.
T = Trace of Precipitation, MM = Missing Value Source: NWS Daily Summary

Daily Weather History Graph

Daily Weather History Graph

Search for Another Location

Airport:

Trip Planner

Search our weather history database for the weather conditions in past years. The results will help you decide how hot, cold, wet, or windy it might be!

Date:

Astronomy

Mar. 13, 2014 Rise Set
Actual Time 7:13 AM EDT 7:03 PM EDT
Civil Twilight 6:46 AM EDT 7:30 PM EDT
Nautical Twilight 6:14 AM EDT 8:01 PM EDT
Astronomical Twilight 5:43 AM EDT 8:33 PM EDT
Moon 4:26 PM EDT (3/13) 5:18 AM EDT (3/13)
Length of Visible Light 12h 44m
Length of Day
11h 50m
Waxing Gibbous, 91% of the Moon is Illuminated
Mar 13
Waxing Gibbous
Mar 16
Full
Mar 23
Last Quarter
Mar 30
New
Apr 7
First Quarter

Hourly Weather History & Observations

Time (EDT) Temp. Windchill Dew Point Humidity Pressure Visibility Wind Dir Wind Speed Gust Speed Precip Events Conditions
12:07 AM 32.0 °F 18.9 °F 24.8 °F 75% 29.24 in 10.0 mi NW 24.2 mph 34.5 mph N/A   Overcast
12:58 AM 28.2 °F 14.5 °F 18.1 °F 66% 29.28 in 10.0 mi NW 21.9 mph 35.7 mph N/A   Overcast
1:16 AM 26.6 °F 11.4 °F 15.8 °F 64% 29.29 in 10.0 mi NNW 25.3 mph 39.1 mph N/A   Overcast
1:25 AM 26.6 °F 12.7 °F 15.8 °F 64% 29.29 in 10.0 mi NNW 20.7 mph 39.1 mph N/A   Overcast
1:26 AM 26.6 °F 13.4 °F 15.8 °F 64% 29.29 in 10.0 mi NNW 18.4 mph 39.1 mph N/A Snow Light Snow
1:29 AM 26.6 °F 12.4 °F 15.8 °F 64% 29.29 in 10.0 mi NW 21.9 mph 38.0 mph N/A Snow Light Snow
1:32 AM 26.6 °F 12.7 °F 15.8 °F 64% 29.29 in 10.0 mi NW 20.7 mph 33.4 mph N/A Snow Light Snow
1:54 AM 24.8 °F 8.4 °F 12.2 °F 59% 29.32 in 10.0 mi NW 27.6 mph 44.9 mph N/A   Overcast
1:58 AM 24.8 °F 10.0 °F 12.7 °F 60% 29.33 in 10.0 mi NW 21.9 mph 44.9 mph 0.00 in   Overcast
2:40 AM 23.0 °F 6.0 °F 10.4 °F 59% 29.34 in 10.0 mi NW 27.6 mph 35.7 mph N/A   Overcast
2:58 AM 22.1 °F 5.7 °F 9.3 °F 58% 29.34 in 10.0 mi NW 24.2 mph 39.1 mph N/A   Overcast
3:15 AM 21.2 °F 4.2 °F 8.6 °F 58% 29.36 in 10.0 mi NW 25.3 mph 40.3 mph N/A Snow Light Snow
3:24 AM 21.2 °F 4.9 °F 8.6 °F 58% 29.36 in 10.0 mi NW 23.0 mph 32.2 mph N/A   Mostly Cloudy
3:51 AM 21.2 °F 4.9 °F 6.8 °F 54% 29.40 in 10.0 mi NW 23.0 mph 34.5 mph N/A   Scattered Clouds
3:58 AM 20.5 °F 3.2 °F 6.8 °F 56% 29.42 in 10.0 mi NW 25.3 mph 35.7 mph 0.00 in   Scattered Clouds
4:25 AM 19.4 °F 3.2 °F 6.8 °F 58% 29.43 in 10.0 mi NW 20.7 mph 33.4 mph N/A   Mostly Cloudy
4:31 AM 19.4 °F 1.8 °F 6.8 °F 58% 29.44 in 10.0 mi NW 25.3 mph 33.4 mph N/A   Mostly Cloudy
4:40 AM 19.4 °F 2.1 °F 6.8 °F 58% 29.44 in 10.0 mi NW 24.2 mph 35.7 mph N/A   Mostly Cloudy
4:58 AM 19.9 °F 1.5 °F 5.2 °F 53% 29.47 in 10.0 mi NW 28.8 mph 38.0 mph N/A   Overcast
5:01 AM 19.4 °F 2.5 °F 5.0 °F 54% 29.45 in 10.0 mi NW 23.0 mph 38.0 mph N/A   Overcast
5:07 AM 19.4 °F 2.1 °F 5.0 °F 54% 29.46 in 10.0 mi NW 24.2 mph 38.0 mph N/A   Overcast
5:10 AM 19.4 °F 3.2 °F 5.0 °F 54% 29.45 in 10.0 mi NNW 20.7 mph 38.0 mph N/A   Mostly Cloudy
5:13 AM 19.4 °F 4.1 °F 5.0 °F 54% 29.45 in 10.0 mi NW 18.4 mph 38.0 mph N/A   Mostly Cloudy
5:58 AM 19.2 °F 3.0 °F 3.4 °F 50% 29.50 in 10.0 mi NW 20.7 mph 32.2 mph N/A   Partly Cloudy
6:58 AM 19.4 °F 2.1 °F 3.2 °F 49% 29.55 in 10.0 mi WNW 24.2 mph 32.2 mph N/A   Mostly Cloudy
7:58 AM 19.6 °F 2.0 °F 4.1 °F 51% 29.58 in 10.0 mi WNW 25.3 mph 36.8 mph N/A   Clear
8:58 AM 21.2 °F 4.5 °F 4.1 °F 48% 29.64 in 10.0 mi WNW 24.2 mph 33.4 mph N/A   Partly Cloudy
9:58 AM 23.0 °F 6.6 °F 4.5 °F 45% 29.67 in 10.0 mi WNW 25.3 mph 31.1 mph N/A   Scattered Clouds
10:58 AM 24.1 °F 8.3 °F 3.4 °F 41% 29.70 in 10.0 mi WNW 24.2 mph 34.5 mph N/A   Partly Cloudy
11:58 AM 25.5 °F 10.6 °F 4.5 °F 41% 29.71 in 10.0 mi WNW 23.0 mph 32.2 mph N/A   Scattered Clouds
12:58 PM 26.6 °F 11.4 °F 5.2 °F 40% 29.73 in 10.0 mi WNW 25.3 mph 34.5 mph N/A   Mostly Cloudy
1:58 PM 28.8 °F 13.2 °F 2.3 °F 32% 29.74 in 10.0 mi WNW 29.9 mph 38.0 mph N/A   Clear
2:58 PM 30.7 °F 18.8 °F 1.2 °F 28% 29.76 in 10.0 mi WNW 18.4 mph 27.6 mph N/A   Clear
3:58 PM 30.9 °F 15.9 °F -0.9 °F 26% 29.79 in 10.0 mi NW 31.1 mph 36.8 mph N/A   Clear
4:58 PM 30.9 °F 18.1 °F -0.6 °F 26% 29.82 in 10.0 mi WNW 21.9 mph 28.8 mph N/A   Clear
5:58 PM 30.0 °F 16.3 °F -2.7 °F 24% 29.86 in 10.0 mi NW 24.2 mph 33.4 mph N/A   Clear
6:58 PM 28.6 °F 14.6 °F -3.1 °F 25% 29.91 in 10.0 mi WNW 23.0 mph 34.5 mph N/A   Clear
7:58 PM 27.7 °F 14.8 °F -3.8 °F 26% 29.96 in 10.0 mi WNW 18.4 mph 28.8 mph N/A   Clear
8:58 PM 27.0 °F 15.2 °F -4.2 °F 26% 30.01 in 10.0 mi WNW 15.0 mph - N/A   Clear
9:58 PM 25.9 °F 17.4 °F -2.9 °F 29% 30.06 in 10.0 mi WNW 8.1 mph - N/A   Clear
10:58 PM 25.9 °F 17.4 °F -2.2 °F 30% 30.09 in 10.0 mi NW 8.1 mph - N/A   Clear
11:58 PM 25.3 °F 15.3 °F -2.2 °F 30% 30.11 in 10.0 mi NW 10.4 mph - N/A   Clear